RH
36 33 30 31 31 41 58 68 77 71 64 55 36 40 50 66 96 85 78 48 40 29 26 34 50 64 66 62 71 65 63 75 81
33 31 28 28 28 28 28 34 39 38 38 55 89 60 64 73 96 95 76 68 66 64 58 49 37 40 80 84 74 80 88 81 75
38 36 37 37 38 40 44 47 47 48 51 54 57 62 66 87 97 93 81 76 75 72 70 69 68 68 59 72 83 77 58 59 61
42 44 44 45 46 47 48 49 52 54 59 61 66 71 77 81 93 80 90 82 82 81 76 80 86 82 78 72 69 73 83 76 74
46 48 48 50 51 54 54 57 59 65 71 75 78 81 82 97 90 96 84 80 81 80 80 78 76 85 89 94 95 88 84 83 83
56 53 54 58 58 60 62 64 67 75 79 81 83 84 93 94 89 94 83 83 82 82 78 78 77 72 73 76 78 89 92 94 94
63 58 60 61 64 64 69 76 80 82 93 93 85 85 83 80 81 78 74 80 78 74 70 64 68 68 70 74 75 74 75 77 76
66 68 68 68 69 77 80 86 89 86 84 82 82 80 79 76 74 67 54 45 41 46 49 52 56 57 56 63 68 63 60 58 54
87 88 68 71 76 84 86 95 86 82 83 84 85 80 76 70 58 36 33 32 31 33 38 37 37 40 44 45 44 41 41 44 48
83 74 76 77 80 89 94 89 86 86 85 77 63 50 41 35 34 32 31 30 28 28 29 28 28 28 31 34 35 38 43 45 50
81 81 80 79 83 84 90 85 87 87 55 37 35 34 33 32 32 31 30 29 29 29 31 32 36 36 34 31 28 26 27 29 35
76 76 74 76 80 82 86 90 74 37 35 34 32 27 25 25 25 26 28 29 30 34 36 33 24 16 11 9 9 9 8 9 10
76 79 84 81 82 84 87 54 36 37 37 29 21 19 20 21 22 24 26 29 27 24 23 21 19 13 8 7 6 5 5 4 4
82 85 91 86 86 88 43 37 41 39 30 19 18 18 18 19 21 24 25 26 24 21 20 17 12 8 7 6 5 5 4 4 4
86 92 92 87 76 38 39 42 42 33 20 18 16 12 13 15 20 25 28 19 14 13 14 11 7 6 6 7 7 7 7 7 6
91 95 92 71 39 40 43 43 37 23 17 14 12 9 11 10 13 20 20 13 11 9 9 7 8 8 8 7 7 7 7 7 6
99 96 77 42 42 44 44 40 29 19 15 10 18 24 25 26 20 15 11 13 9 8 9 9 9 10 9 9 9 9 9 8 8
97 70 43 42 44 45 43 36 22 16 12 10 12 24 23 22 21 13 15 13 12 11 11 11 11 11 10 10 10 9 9 8 10
76 47 45 45 46 45 40 28 17 12 11 14 12 10 10 24 22 26 29 29 32 37 29 17 14 13 14 14 13 11 12 16 44
62 51 46 46 46 43 32 21 13 12 13 13 11 11 17 26 40 31 27 33 37 40 43 41 25 34 42 46 44 57 55 84 91
Wind_Speed
7 6 6 5 6 7 7 7 8 7 6 4 2 2 3 4 5 5 5 5 5 5 6 8 9 10 11 10 9 11 17 18 17
7 7 8 8 8 7 6 5 4 3 3 2 1 1 2 3 4 4 5 6 6 6 6 5 6 8 9 10 11 11 13 14 14
7 7 7 8 8 8 7 6 5 4 2 2 2 1 2 4 5 5 6 7 8 8 7 7 7 8 9 11 12 12 12 14 14
6 6 6 6 6 6 5 5 4 3 2 1 1 3 4 4 5 7 8 10 10 10 11 12 13 14 13 12 14 14 14 14 13
6 5 5 5 4 4 3 3 2 1 1 2 3 5 6 5 8 8 9 9 9 9 11 12 13 12 12 14 18 18 17 18 18
6 6 5 4 3 2 2 1 1 2 3 5 6 7 7 7 7 7 10 10 11 12 14 16 16 16 16 16 16 14 15 19 22
9 6 4 4 3 2 1 2 2 3 4 6 8 8 10 10 11 13 12 12 13 14 13 15 16 16 16 17 17 18 19 19 19
8 6 5 4 3 2 3 4 4 5 5 8 11 12 13 13 14 17 15 13 13 14 14 15 16 17 18 17 18 18 19 20 21
7 5 5 5 4 4 4 5 7 7 10 11 13 15 15 16 16 18 16 15 14 14 15 17 18 18 18 19 20 21 21 21 21
7 6 5 5 5 5 6 7 9 11 13 14 15 16 17 18 18 19 18 16 15 16 17 17 18 17 17 18 19 19 20 20 21
6 6 3 5 7 8 10 10 12 13 13 14 17 19 20 20 19 17 18 15 15 15 15 15 15 14 15 17 19 21 22 23 24
9 7 7 6 5 7 10 11 11 11 13 16 19 20 19 19 17 15 14 14 13 14 14 14 15 16 18 20 21 22 24 24 25
12 12 12 7 8 8 9 9 10 13 16 17 18 18 17 15 13 12 12 11 12 14 14 15 17 21 22 23 24 25 27 27 27
17 13 12 9 9 8 7 8 12 16 17 16 15 16 14 12 10 9 10 10 13 15 16 18 23 23 25 26 26 26 27 28 28
19 16 14 10 8 6 7 10 14 16 16 14 13 13 11 10 8 9 11 12 16 19 20 23 26 29 28 27 27 27 28 29 29
20 16 13 10 7 6 8 11 13 15 15 12 12 9 7 13 10 11 12 20 17 20 18 27 28 28 27 27 26 27 28 30 30
20 17 14 10 7 6 8 10 13 13 13 12 9 4 5 4 6 18 18 14 16 22 22 26 24 27 26 28 29 29 30 31 32
20 16 12 10 6 7 8 10 11 11 12 11 6 4 3 13 8 14 14 13 22 24 25 24 28 24 29 29 30 32 33 34 35
18 14 11 8 6 6 9 10 10 9 10 11 10 7 9 5 10 8 13 18 20 22 24 24 27 27 26 29 30 32 34 35 33
16 14 12 7 5 7 8 10 9 10 10 10 11 11 10 9 8 19 15 22 22 22 19 27 23 22 24 25 26 28 32 31 30
Wind_Direction
114 101 101 105 122 142 173 190 206 225 244 267 301 27 44 27 346 3 356 9 345 323 290 270 255 257 282 256 263 264 260 261 265
112 109 108 108 108 113 120 140 168 173 176 155 322 353 38 23 328 335 344 349 344 348 358 338 304 295 271 272 279 269 276 280 275
116 114 112 110 110 110 109 107 108 112 85 50 52 360 352 355 322 322 331 325 325 328 333 327 316 306 285 266 269 274 276 273 277
131 128 124 119 116 114 114 113 109 103 91 74 10 331 333 339 311 320 323 313 314 317 315 309 303 297 295 285 277 270 270 272 274
160 148 141 136 134 131 125 118 106 72 3 330 322 321 320 319 313 317 305 309 309 313 307 306 306 305 308 290 279 274 274 274 276
165 172 164 157 149 132 128 116 63 329 322 317 317 320 312 313 312 308 307 305 301 295 298 298 296 298 296 296 293 293 284 279 276
181 185 193 187 187 171 247 303 320 328 320 316 314 317 311 308 305 299 302 298 297 295 292 289 292 292 296 296 294 289 288 288 290
191 198 201 203 216 242 277 294 294 299 302 308 304 308 307 305 302 298 301 299 297 291 285 285 282 283 287 289 289 290 290 289 289
193 195 206 212 227 251 268 271 284 295 310 306 301 303 303 301 301 299 299 297 290 288 278 280 283 284 285 284 285 287 288 288 288
193 200 214 238 238 258 268 279 288 294 304 306 305 304 302 301 299 295 296 291 284 278 280 283 286 289 289 288 291 292 289 288 286
198 209 219 268 265 277 273 280 287 295 305 307 306 303 301 297 296 289 289 285 282 281 283 288 290 292 292 293 293 293 292 292 291
202 208 220 246 261 272 272 280 287 297 307 309 305 302 299 296 294 286 281 283 282 282 284 287 290 297 300 299 297 294 292 292 290
207 215 220 234 249 268 274 277 296 309 317 316 312 309 307 295 288 280 274 274 283 288 290 292 297 304 306 305 304 301 299 297 293
214 222 228 237 255 259 265 294 312 319 322 322 317 313 305 293 282 273 275 283 289 293 295 295 304 306 309 308 306 303 301 298 297
213 219 226 241 241 247 280 308 316 320 327 328 322 311 300 288 274 268 279 293 304 298 300 306 313 313 311 308 306 304 302 300 298
214 221 227 229 225 252 291 309 319 325 329 338 336 315 295 294 277 261 269 302 297 302 307 311 311 310 310 308 306 305 302 299 297
210 213 217 211 221 261 297 316 325 329 338 349 351 318 293 300 273 285 291 284 290 304 305 309 311 313 311 311 309 307 302 298 296
210 205 204 211 228 277 306 324 331 333 338 347 358 325 289 306 282 293 296 290 292 300 308 314 318 314 314 312 310 308 305 302 301
193 200 209 214 252 288 314 327 330 335 334 335 338 324 301 311 308 295 309 288 309 310 312 315 316 313 310 309 309 308 308 306 303
195 200 202 231 267 303 321 329 331 331 329 329 331 328 320 306 288 302 302 302 308 306 309 311 310 309 308 306 308 300 309 306 303